Flag for Canada Weather past 2 weeks in Kugluktuk, Nunavut, Canada

Now
19 °F

Broken clouds.


Feels Like: 5 °F
Forecast: -3 / 17 °F
Wind: 16 mph from Southeast

Location: Coppermine

Current Time: Apr 21, 2015 at 10:04:55 PM

Latest Report: Apr 21, 2015 at 9:00 PM


Visibility: 15 mi

Pressure: 30.18 "Hg

Humidity: 68%

Dew point: 10 °F

Location of KugluktukLocation

Historic Weather in Kugluktuk — Graph

°F

Kugluktuk temperature yesterday

Maximum temperature yesterday: -2 °F (at 5:00 PM)
Minimum temperature yesterday: -15 °F (at 3:00 AM)
Average temperature yesterday: -9 °F

Past Weeks' High & Low Weather Summary

 TemperatureHumidityPressure
High21 °F (Apr 21, 6:00 PM)92% (Apr 9, 11:00 PM)30.33 "Hg (Apr 9, 11:00 PM)
Low-22 °F (Apr 13, 3:00 AM)66% (Apr 14, 2:00 PM)29.39 "Hg (Apr 11, 12:00 PM)
Average-2 °F80%29.94 "Hg
* Reported Apr 6 8:00 PM — Apr 21 8:00 PM, Kugluktuk, Weather by CustomWeather, © 2015

Note: Actual official high and low records may vary slightly from our data, if they occured in-between our weather recording intervals... More about our weather records

Advertising

Kugluktuk weather history for previous 24 hours

 ConditionsComfort  
Time TempWeatherWind HumidityBarometerVisibility
8:00 PM
Tue, Apr 21
19 °FPassing clouds.17 mph68%30.18 "Hg15 mi
7:00 PM21 °FScattered clouds.15 mph68%30.19 "Hg15 mi
6:00 PM21 °FPassing clouds.13 mph68%30.19 "Hg15 mi
5:00 PM10 °FPassing clouds.3 mph79%30.19 "Hg15 mi
4:00 PM7 °FSnow flurries. Passing clouds.No wind85%30.21 "Hg15 mi
3:00 PM3 °FSnow flurries. Scattered clouds.2 mph85%30.22 "Hg15 mi
2:00 PM1 °FSnow flurries. Passing clouds.No wind78%30.23 "Hg15 mi
1:00 PM-4 °FSnow flurries. Passing clouds.6 mph84%30.23 "Hg15 mi
12:00 PM-6 °FSnow flurries. Scattered clouds.5 mph77%30.23 "Hg15 mi
11:00 AM-9 °FSnow flurries. Passing clouds.5 mph77%30.23 "Hg15 mi
10:00 AM-11 °FSnow flurries. Passing clouds.5 mph76%30.23 "Hg15 mi
9:00 AM-13 °FSnow flurries. Fog.3 mph76%30.24 "Hg15 mi
8:00 AM-17 °FSnow flurries. Fog.2 mph76%30.24 "Hg15 mi
7:00 AM-17 °FSnow flurries. Fog.5 mph76%30.24 "Hg15 mi
6:00 AM-17 °FSnow flurries. Ice fog.6 mph76%30.24 "Hg12 mi
5:00 AM-15 °FIce fog.2 mph76%30.24 "Hg12 mi
4:00 AM-17 °FSnow flurries. Passing clouds.3 mph76%30.24 "Hg15 mi
3:00 AM-17 °FSnow flurries. Passing clouds.3 mph76%30.24 "Hg15 mi
2:00 AM-15 °FSnow flurries. Passing clouds.3 mph76%30.24 "Hg15 mi
1:00 AM-15 °FSnow flurries. Passing clouds.3 mph76%30.23 "Hg15 mi
12:00 AM-11 °FSnow flurries. Passing clouds.3 mph76%30.23 "Hg15 mi
11:00 PM
Mon, Apr 20
-6 °FSnow flurries. Passing clouds.No wind84%30.23 "Hg15 mi
10:00 PM-4 °FSnow flurries. Passing clouds.No wind77%30.23 "Hg15 mi
Weather by CustomWeather, © 2015

See weather overviewHow to use our weather pages